FW6534 Weather Reports


Display with metric or nautical units.
time (UTC)temp
F
wind
direction
speed
MPH
gust
MPH
rain 1hr
in
rain 24hr
in
rain mn
in
humidity
%
barometer
mb
20260507025052 66 360 2.0 6.0 0.00 0.00 0.00 27 1016.4
20260507024559 67 360 2.0 9.0 0.00 0.00 0.00 27 1016.5
20260507024050 67 360 4.0 11.0 0.00 0.00 0.00 26 1016.3
20260507023551 67 360 3.0 11.0 0.00 0.00 0.00 26 1016.2
20260507023053 68 360 3.0 11.0 0.00 0.00 0.00 26 1016.0
20260507022552 68 360 5.0 12.0 0.00 0.00 0.00 26 1016.1
20260507022052 69 360 5.0 12.0 0.00 0.00 0.00 25 1015.9
20260507021557 69 360 5.0 12.0 0.00 0.00 0.00 25 1015.9
20260507021051 70 360 4.0 12.0 0.00 0.00 0.00 24 1015.8
20260507020552 71 360 7.0 12.0 0.00 0.00 0.00 23 1015.8
20260507020059 72 360 6.0 10.0 0.00 0.00 0.00 23 1015.8
20260507015551 73 360 3.0 10.0 0.00 0.00 0.00 22 1015.8
20260507015052 74 360 3.0 8.0 0.00 0.00 0.00 21 1015.8
20260507014555 74 360 2.0 8.0 0.00 0.00 0.00 21 1015.7
20260507014051 75 360 4.0 8.0 0.00 0.00 0.00 20 1015.6
20260507013553 75 0 3.0 8.0 0.00 0.00 0.00 20 1015.6
20260507013101 75 360 3.0 8.0 0.00 0.00 0.00 20 1015.6
20260507012552 76 360 3.0 8.0 0.00 0.00 0.00 20 1015.6
20260507012052 76 360 3.0 8.0 0.00 0.00 0.00 19 1015.7
20260507011558 76 360 3.0 12.0 0.00 0.00 0.00 17 1015.5
20260507011052 77 360 4.0 12.0 0.00 0.00 0.00 15 1015.5
20260507010552 77 360 5.0 13.0 0.00 0.00 0.00 16 1015.5
20260507010057 77 360 4.0 14.0 0.00 0.00 0.00 13 1015.4
20260507005552 77 360 8.0 14.0 0.00 0.00 0.00 13 1015.5
20260507005051 77 360 6.0 12.0 0.00 0.00 0.00 13 1015.4
20260507004600 77 360 3.0 8.0 0.00 0.00 0.00 13 1015.3
20260507004052 77 360 3.0 13.0 0.00 0.00 0.00 13 1015.2
20260507003555 77 360 8.0 13.0 0.00 0.00 0.00 13 1015.3
20260507003100 78 360 8.0 13.0 0.00 0.00 0.00 12 1015.2
20260507002552 78 360 6.0 16.0 0.00 0.00 0.00 13 1015.2
20260507002051 78 360 7.0 16.0 0.00 0.00 0.00 14 1015.1
20260507001558 77 360 8.0 19.0 0.00 0.00 0.00 14 1014.9
20260507001050 77 360 11.0 19.0 0.00 0.00 0.00 14 1014.9
20260507000552 78 360 11.0 19.0 0.00 0.00 0.00 14 1014.9
20260507000055 78 360 8.0 19.0 0.00 0.00 0.00 14 1014.7
20260506235550 79 360 8.0 19.0 0.00 0.00 0.00 15 1014.7
20260506235052 79 360 11.0 17.0 0.00 0.00 0.00 15 1014.7
20260506234556 79 360 9.0 16.0 0.00 0.00 0.00 16 1014.7
20260506234051 79 360 8.0 22.0 0.00 0.00 0.00 15 1014.7
20260506233552 79 360 9.0 22.0 0.00 0.00 0.00 15 1014.7
20260506233100 78 360 11.0 18.0 0.00 0.00 0.00 15 1014.6
20260506232554 78 360 3.0 10.0 0.00 0.00 0.00 16 1014.4
20260506232052 78 360 1.0 10.0 0.00 0.00 0.00 16 1014.9
20260506231556 77 360 2.0 10.0 0.00 0.00 0.00 16 1014.9
20260506231052 76 360 5.0 10.0 0.00 0.00 0.00 17 1014.7
20260506230552 75 360 3.0 6.0 0.00 0.00 0.00 18 1014.9
20260506230100 75 360 3.0 9.0 0.00 0.00 0.00 18 1015.0
20260506225551 75 360 1.0 13.0 0.00 0.00 0.00 17 1014.9
20260506225051 75 360 4.0 13.0 0.00 0.00 0.00 17 1014.8
20260506224609 76 360 7.0 12.0 0.00 0.00 0.00 17 1014.8
20260506224051 78 360 5.0 11.0 0.00 0.00 0.00 17 1014.9
20260506223550 78 360 3.0 13.0 0.00 0.00 0.00 17 1015.0
20260506223104 79 360 5.0 14.0 0.00 0.00 0.00 16 1015.1
20260506222554 79 360 7.0 14.0 0.00 0.00 0.00 17 1015.1
20260506222052 79 360 9.0 17.0 0.00 0.00 0.00 17 1015.1
20260506221558 79 360 9.0 17.0 0.00 0.00 0.00 17 1015.1
20260506221052 79 360 8.0 16.0 0.00 0.00 0.00 17 1015.1
20260506220552 79 360 7.0 15.0 0.00 0.00 0.00 17 1015.2
20260506215552 78 0 8.0 19.0 0.00 0.00 0.00 17 1015.3
20260506215052 77 360 5.0 19.0 0.00 0.00 0.00 18 1015.4
20260506214610 77 360 8.0 24.0 0.00 0.00 0.00 18 1015.4
20260506214051 77 360 12.0 24.0 0.00 0.00 0.00 18 1015.6
20260506213551 77 360 9.0 23.0 0.00 0.00 0.00 18 1015.5
20260506213100 77 360 9.0 16.0 0.00 0.00 0.00 19 1015.7
20260506212552 77 360 2.0 16.0 0.00 0.00 0.00 19 1016.0
20260506212054 76 360 7.0 21.0 0.00 0.00 0.00 19 1016.0
20260506211557 76 360 6.0 21.0 0.00 0.00 0.00 19 1016.0
20260506211052 76 360 4.0 19.0 0.00 0.00 0.00 19 1016.0
20260506210551 75 360 9.0 21.0 0.00 0.00 0.00 19 1016.0
20260506210058 75 360 12.0 21.0 0.00 0.00 0.00 19 1016.0
20260506205551 76 360 12.0 20.0 0.00 0.00 0.00 19 1016.0
20260506205052 77 360 6.0 17.0 0.00 0.00 0.00 18 1016.0
20260506204628 78 360 11.0 17.0 0.00 0.00 0.00 18 1016.1
20260506204051 77 360 4.0 17.0 0.00 0.00 0.00 19 1016.1
20260506203552 76 360 9.0 17.0 0.00 0.00 0.00 19 1016.2
20260506203055 76 360 2.0 13.0 0.00 0.00 0.00 19 1016.3
20260506202552 75 360 7.0 13.0 0.00 0.00 0.00 20 1016.5
20260506202051 74 360 5.0 16.0 0.00 0.00 0.00 21 1016.4
20260506201555 74 360 8.0 20.0 0.00 0.00 0.00 21 1016.4
20260506201052 73 360 10.0 25.0 0.00 0.00 0.00 21 1016.4
20260506200551 73 360 12.0 25.0 0.00 0.00 0.00 21 1016.5
20260506200055 74 360 11.0 25.0 0.00 0.00 0.00 20 1016.6
20260506195551 74 360 9.0 21.0 0.00 0.00 0.00 21 1016.5
20260506195054 74 360 12.0 21.0 0.00 0.00 0.00 20 1016.7
20260506194605 73 360 12.0 21.0 0.00 0.00 0.00 21 1016.7
20260506194051 72 360 9.0 21.0 0.00 0.00 0.00 21 1016.8
20260506193551 73 360 10.0 21.0 0.00 0.00 0.00 21 1016.9
20260506193059 73 360 10.0 20.0 0.00 0.00 0.00 21 1017.1
20260506192551 72 360 4.0 17.0 0.00 0.00 0.00 22 1017.0
20260506192048 72 360 12.0 17.0 0.00 0.00 0.00 21 1017.1
20260506191555 72 360 6.0 18.0 0.00 0.00 0.00 22 1017.1
20260506191052 72 360 10.0 18.0 0.00 0.00 0.00 21 1017.2
20260506190550 72 360 4.0 17.0 0.00 0.00 0.00 21 1017.2
20260506190058 72 360 9.0 17.0 0.00 0.00 0.00 21 1017.2
20260506185552 72 360 5.0 11.0 0.00 0.00 0.00 21 1017.2
20260506185050 71 360 5.0 14.0 0.00 0.00 0.00 22 1017.4
20260506184603 71 360 6.0 14.0 0.00 0.00 0.00 22 1017.4
20260506184053 71 360 5.0 12.0 0.00 0.00 0.00 22 1017.4
20260506183555 71 360 2.0 12.0 0.00 0.00 0.00 22 1017.7
20260506183106 70 360 5.0 10.0 0.00 0.00 0.00 22 1017.6
20260506182551 70 360 2.0 9.0 0.00 0.00 0.00 22 1017.6
20260506182055 69 360 4.0 11.0 0.00 0.00 0.00 23 1017.6
20260506181559 69 360 4.0 11.0 0.00 0.00 0.00 23 1017.8
20260506181052 69 360 5.0 11.0 0.00 0.00 0.00 24 1017.9
20260506180552 68 360 3.0 13.0 0.00 0.00 0.00 23 1017.9
20260506180055 68 360 6.0 13.0 0.00 0.00 0.00 23 1017.9
20260506175551 68 360 5.0 11.0 0.00 0.00 0.00 24 1017.9
20260506175056 68 360 3.0 10.0 0.00 0.00 0.00 24 1018.0
20260506174556 67 360 3.0 12.0 0.00 0.00 0.00 24 1018.0
20260506174052 67 360 6.0 12.0 0.00 0.00 0.00 25 1017.9
20260506173551 66 360 3.0 9.0 0.00 0.00 0.00 25 1017.9
20260506173101 65 360 4.0 11.0 0.00 0.00 0.00 26 1018.0
20260506172553 65 0 4.0 11.0 0.00 0.00 0.00 26 1017.9
20260506172055 64 360 5.0 10.0 0.00 0.00 0.00 26 1018.0
20260506171559 64 360 4.0 9.0 0.00 0.00 0.00 27 1017.9
20260506171053 64 360 3.0 9.0 0.00 0.00 0.00 29 1017.9
20260506170554 62 360 5.0 9.0 0.00 0.00 0.00 29 1017.9
20260506170059 62 360 4.0 9.0 0.00 0.00 0.00 30 1017.9
20260506165552 62 0 2.0 8.0 0.00 0.00 0.00 31 1017.9
20260506165052 62 360 3.0 8.0 0.00 0.00 0.00 31 1018.0
20260506164600 61 360 3.0 9.0 0.00 0.00 0.00 31 1017.9
20260506164053 61 360 1.0 9.0 0.00 0.00 0.00 32 1017.9
20260506163553 60 360 4.0 8.0 0.00 0.00 0.00 32 1017.9
20260506163103 60 0 0.0 6.0 0.00 0.00 0.00 34 1018.1
20260506162551 59 360 2.0 6.0 0.00 0.00 0.00 34 1018.1
20260506162051 59 360 3.0 5.0 0.00 0.00 0.00 34 1018.1
20260506161605 58 360 1.0 6.0 0.00 0.00 0.00 36 1018.1
20260506161055 58 360 2.0 6.0 0.00 0.00 0.00 37 1018.1
20260506160551 57 360 2.0 6.0 0.00 0.00 0.00 37 1018.1
20260506160058 57 0 2.0 5.0 0.00 0.00 0.00 39 1018.1
20260506155552 56 360 2.0 5.0 0.00 0.00 0.00 39 1018.1
20260506155052 55 360 2.0 5.0 0.00 0.00 0.00 40 1018.1
20260506154613 54 360 1.0 6.0 0.00 0.00 0.00 41 1018.1
20260506154052 53 360 2.0 6.0 0.00 0.00 0.00 43 1017.9
20260506153552 52 360 1.0 4.0 0.00 0.00 0.00 44 1017.9
20260506153055 51 360 1.0 4.0 0.00 0.00 0.00 44 1017.9
20260506152552 50 0 1.0 4.0 0.00 0.00 0.00 45 1018.0
20260506152052 49 360 1.0 4.0 0.00 0.00 0.00 46 1017.9
20260506151557 49 0 1.0 4.0 0.00 0.00 0.00 46 1017.9
20260506151051 48 360 1.0 4.0 0.00 0.00 0.00 47 1017.9
20260506150551 47 360 1.0 3.0 0.00 0.00 0.00 49 1017.9
20260506150059 46 360 1.0 5.0 0.00 0.00 0.00 49 1017.8
20260506145554 45 0 1.0 5.0 0.00 0.00 0.00 50 1017.8
20260506145052 44 0 2.0 5.0 0.00 0.00 0.00 52 1017.8
20260506144602 43 0 1.0 4.0 0.00 0.00 0.00 53 1017.8
20260506144052 42 0 0.0 3.0 0.00 0.00 0.00 53 1017.9
20260506143551 41 360 1.0 4.0 0.00 0.00 0.00 54 1017.8
20260506143059 41 360 1.0 4.0 0.00 0.00 0.00 55 1017.8
20260506142552 40 360 2.0 4.0 0.00 0.00 0.00 56 1017.7
20260506142051 39 360 1.0 4.0 0.00 0.00 0.00 56 1017.8
20260506141603 39 360 2.0 4.0 0.00 0.00 0.00 57 1017.9
20260506141054 38 360 2.0 4.0 0.00 0.00 0.00 59 1017.8
20260506140552 37 360 1.0 4.0 0.00 0.00 0.00 59 1017.7
20260506140109 37 360 1.0 4.0 0.00 0.00 0.00 60 1017.6
20260506135552 36 360 2.0 4.0 0.00 0.00 0.00 62 1017.6
20260506135051 35 360 2.0 4.0 0.00 0.00 0.00 63 1017.6
20260506134602 34 360 0.0 2.0 0.00 0.00 0.00 64 1017.6
20260506134053 34 360 0.0 0.0 0.00 0.00 0.00 63 1017.5
20260506133551 34 0 0.0 2.0 0.00 0.00 0.00 62 1017.6
20260506133104 34 0 0.0 3.0 0.00 0.00 0.00 61 1017.5
20260506132551 34 360 1.0 3.0 0.00 0.00 0.00 61 1017.4
20260506132051 34 360 2.0 3.0 0.00 0.00 0.00 61 1017.4
20260506131557 34 0 0.0 0.0 0.00 0.00 0.00 60 1017.5
20260506131054 34 0 0.0 0.0 0.00 0.00 0.00 60 1017.4
20260506130551 34 0 0.0 0.0 0.00 0.00 0.00 60 1017.2
20260506130054 35 0 0.0 1.0 0.00 0.00 0.00 60 1017.3
20260506125552 35 0 0.0 2.0 0.00 0.00 0.00 59 1017.1
20260506125051 35 0 0.0 2.0 0.00 0.00 0.00 58 1016.9
20260506124557 35 0 0.0 2.0 0.00 0.00 0.00 58 1017.0
20260506124051 36 0 0.0 1.0 0.00 0.00 0.00 60 1016.9
20260506123554 36 0 0.0 1.0 0.00 0.00 0.00 59 1016.9
20260506123054 36 0 0.0 0.0 0.00 0.00 0.00 60 1016.8
20260506122551 36 0 0.0 1.0 0.00 0.00 0.00 59 1016.8
20260506122052 36 0 0.0 3.0 0.00 0.00 0.00 59 1016.7
20260506121553 37 0 0.0 3.0 0.00 0.00 0.00 58 1016.8
20260506121051 37 0 1.0 3.0 0.00 0.00 0.00 58 1016.8
20260506120552 37 360 0.0 4.0 0.00 0.00 0.00 57 1016.8
20260506120100 37 360 0.0 4.0 0.00 0.00 0.00 58 1016.8
20260506115553 37 360 2.0 4.0 0.00 0.00 0.00 61 1016.7
20260506115054 37 360 2.0 3.0 0.00 0.00 0.00 62 1016.6
20260506114602 36 360 0.0 0.0 0.00 0.00 0.00 60 1016.5
20260506114051 37 0 0.0 0.0 0.00 0.00 0.00 59 1016.4
20260506113552 37 0 0.0 0.0 0.00 0.00 0.00 59 1016.4
20260506113101 37 0 0.0 0.0 0.00 0.00 0.00 59 1016.3
20260506112553 37 0 0.0 0.0 0.00 0.00 0.00 59 1016.3
20260506112052 37 0 0.0 0.0 0.00 0.00 0.00 59 1016.4
20260506111555 37 0 0.0 0.0 0.00 0.00 0.00 60 1016.5
20260506111051 37 0 0.0 0.0 0.00 0.00 0.00 59 1016.3
20260506110553 37 0 0.0 0.0 0.00 0.00 0.00 60 1016.3
20260506110054 37 0 0.0 3.0 0.00 0.00 0.00 59 1016.4
20260506105553 37 0 1.0 3.0 0.00 0.00 0.00 58 1016.4
20260506105051 37 0 1.0 2.0 0.00 0.00 0.00 58 1016.3
20260506104558 37 0 0.0 0.0 0.00 0.00 0.00 58 1016.3
20260506104052 38 0 0.0 0.0 0.00 0.00 0.00 57 1016.3
20260506103553 38 0 0.0 0.0 0.00 0.00 0.00 56 1016.3
20260506103059 38 0 0.0 0.0 0.00 0.00 0.00 55 1016.1
20260506102552 38 0 0.0 0.0 0.00 0.00 0.00 56 1016.0
20260506102053 38 0 0.0 0.0 0.00 0.00 0.00 53 1016.0
20260506101556 39 0 0.0 0.0 0.00 0.00 0.00 53 1015.9
20260506101052 39 0 0.0 0.0 0.00 0.00 0.00 53 1015.8
20260506100551 39 0 0.0 0.0 0.00 0.00 0.00 54 1015.8
20260506100056 39 0 0.0 1.0 0.00 0.00 0.00 53 1015.8
20260506095552 39 0 0.0 1.0 0.00 0.00 0.00 54 1015.7
20260506095052 39 0 0.0 1.0 0.00 0.00 0.00 57 1015.8
20260506094553 39 0 0.0 0.0 0.00 0.00 0.00 56 1015.7
20260506094051 39 0 0.0 0.0 0.00 0.00 0.00 56 1015.6
20260506093555 39 0 0.0 0.0 0.00 0.00 0.00 57 1015.6
20260506093059 39 0 0.0 0.0 0.00 0.00 0.00 57 1015.7
20260506092552 38 0 0.0 0.0 0.00 0.00 0.00 56 1015.7
20260506092053 39 0 0.0 0.0 0.00 0.00 0.00 54 1015.5
20260506091557 39 0 0.0 0.0 0.00 0.00 0.00 55 1015.7
20260506091052 39 0 0.0 0.0 0.00 0.00 0.00 54 1015.5
20260506090552 39 0 0.0 0.0 0.00 0.00 0.00 53 1015.5
20260506090054 39 0 0.0 0.0 0.00 0.00 0.00 53 1015.6
20260506085551 39 0 0.0 1.0 0.00 0.00 0.00 52 1015.6
20260506085052 40 0 0.0 2.0 0.00 0.00 0.00 52 1015.6
20260506084555 40 0 0.0 2.0 0.00 0.00 0.00 51 1015.7
20260506084051 40 0 0.0 0.0 0.00 0.00 0.00 51 1015.7
20260506083551 40 0 0.0 0.0 0.00 0.00 0.00 52 1015.6
20260506083055 40 0 0.0 0.0 0.00 0.00 0.00 51 1015.7
20260506082551 41 0 0.0 2.0 0.00 0.00 0.00 49 1015.7
20260506082050 41 0 0.0 3.0 0.00 0.00 0.00 51 1015.7
20260506081558 41 0 1.0 3.0 0.00 0.00 0.00 50 1015.7
20260506081052 41 360 0.0 4.0 0.00 0.00 0.00 48 1015.8
20260506080552 41 0 1.0 4.0 0.00 0.00 0.00 49 1015.8
20260506073053 43 0 0.0 0.0 0.00 0.00 0.00 45 1015.8
20260506072551 44 0 0.0 0.0 0.00 0.00 0.00 46 1015.7
20260506072051 44 0 0.0 0.0 0.00 0.00 0.00 45 1015.6
20260506071556 44 0 0.0 0.0 0.00 0.00 0.00 45 1015.6
20260506071051 45 0 0.0 0.0 0.00 0.00 0.00 44 1015.5
20260506070551 45 0 0.0 0.0 0.00 0.00 0.00 43 1015.4
20260506062052 48 0 0.0 0.0 0.00 0.00 0.00 40 1015.2
20260506061557 48 0 0.0 0.0 0.00 0.00 0.00 40 1015.1
20260506061057 48 0 0.0 1.0 0.00 0.00 0.00 39 1015.2
20260506060551 49 0 0.0 1.0 0.00 0.00 0.00 39 1015.1
20260506051052 51 360 3.0 6.0 0.00 0.00 0.00 37 1014.7
20260506050552 51 360 2.0 6.0 0.00 0.00 0.00 37 1014.7
20260506045054 51 360 3.0 6.0 0.00 0.00 0.00 36 1014.7
20260506044621 51 360 3.0 5.0 0.00 0.00 0.00 36 1014.7
20260506044053 52 360 2.0 4.0 0.00 0.00 0.00 35 1014.7
20260506043554 52 360 2.0 5.0 0.00 0.00 0.00 35 1014.8
20260506043053 52 360 3.0 5.0 0.00 0.00 0.00 35 1014.7
20260506042551 52 360 3.0 5.0 0.00 0.00 0.00 35 1014.7
20260506042054 53 360 0.0 3.0 0.00 0.00 0.00 34 1014.7
20260506041554 53 0 0.0 0.0 0.00 0.00 0.00 34 1014.5
20260506041052 53 0 0.0 0.0 0.00 0.00 0.00 34 1014.4
20260506040551 53 0 0.0 0.0 0.00 0.00 0.00 33 1014.4
20260506040057 54 0 0.0 2.0 0.00 0.00 0.00 33 1014.3
20260506035553 54 0 0.0 4.0 0.00 0.00 0.00 33 1014.3
20260506035054 54 360 1.0 4.0 0.00 0.00 0.00 33 1014.2
20260506034553 54 360 1.0 4.0 0.00 0.00 0.00 33 1014.1
20260506034052 55 360 1.0 4.0 0.00 0.00 0.00 32 1013.9
20260506033552 55 360 1.0 6.0 0.00 0.00 0.00 32 1013.8
20260506033054 55 360 2.0 6.0 0.00 0.00 0.00 32 1013.8
20260506032552 55 360 3.0 6.0 0.00 0.00 0.00 32 1013.8
20260506032052 55 360 2.0 9.0 0.00 0.00 0.00 32 1013.7
20260506031552 55 360 3.0 9.0 0.00 0.00 0.00 32 1013.6
20260506031052 55 360 3.0 8.0 0.00 0.00 0.00 31 1013.4
20260506030552 56 360 4.0 9.0 0.00 0.00 0.00 31 1013.4
20260506030054 56 360 4.0 11.0 0.00 0.00 0.00 31 1013.3
20260506025551 56 360 4.0 11.0 0.00 0.00 0.00 31 1013.2